[[{"header":{"parameterUnit":"m.s-1","parameterCategory":1,"la1":30.2991,"la2":30.254,"lo1":-89.0895,"lo2":-89.0444,"dy":0.0017,"dx":0.0017,"nx":28,"ny":28,"refTime":"2025-07-10T03:00:00:Z","depth":0,"parameterNumber":2,"parameterNumberName":"U-component_of_WINDS"},"data":[0,0,0,0,0,0,0,0,0,0,0,0,0,0,0,0,0,0,0,0,0,0,0,0,0,0,0,0,0,0,0,0,0,0,0,0,0,0,0,0,0,0,0,0,0,0,0,0,0,0,0,0,0,0,0,0,0,0,3.2049,3.2049,0,3.2102,3.2103,3.2103,3.206,3.2058,3.2056,3.2054,3.2113,3.2116,3.212,0,0,0,0,0,0,0,0,0,0,0,0,0,3.1914,3.1917,3.2049,3.2049,3.205,3.2102,3.2103,3.2103,3.206,3.2058,3.2056,3.2053,3.2112,3.2116,3.212,0,0,0,0,0,0,0,0,0,0,0,0,0,3.197,3.1917,3.2048,3.2034,3.2034,3.2102,3.2103,3.2103,3.206,3.2058,3.2055,3.2052,3.2111,3.2116,3.2121,3.2206,0,0,3.2136,3.2138,0,0,0,0,0,0,0,0,3.1967,3.1975,3.2036,3.2036,3.2035,3.2071,3.2077,3.2138,3.2061,3.205,3.2054,3.2051,3.2102,3.2107,3.2124,3.2209,3.2212,3.2136,3.2139,3.2141,3.2143,0,0,0,0,0,0,0,3.1963,3.1973,3.207,3.2037,3.2036,3.2027,3.2032,3.2088,3.2091,3.2051,3.2048,3.2055,3.2101,3.2119,3.2125,3.2213,3.2136,3.214,3.2143,3.2145,3.2374,3.2377,0,0,0,0,0,0,3.196,3.197,3.2068,3.2071,3.1993,3.2032,3.2037,3.2062,3.209,3.2092,3.2057,3.2053,3.2112,3.2119,3.2127,3.2231,3.2141,3.2146,3.2149,3.2371,3.2375,3.2378,0,0,0,0,0,0,3.1958,3.1969,3.2066,3.202,3.2031,3.2037,3.2066,3.2065,3.2083,3.2095,3.2096,3.2075,3.211,3.212,3.2187,3.2232,3.2148,3.2153,3.2367,3.2372,3.2376,3.2438,0,0,0,0,0,0,3.1954,3.1969,3.2,3.2021,3.2034,3.2124,3.2068,3.2068,3.2091,3.2085,3.2111,3.2113,3.2108,3.218,3.2192,3.2237,3.2156,3.2363,3.2369,3.2375,3.2432,3.2445,3.2455,0,0,0,0,0,3.1949,3.2016,3.2002,3.2014,3.2073,3.2127,3.2135,3.2127,3.2094,3.2127,3.2135,3.2112,3.2225,3.2187,3.22,3.2248,3.236,3.2368,3.2374,3.2427,3.2442,3.2455,0,0,0,0,0,0,3.2002,3.2019,3.2003,3.2078,3.2101,3.2119,3.216,3.2142,3.2176,3.217,3.216,3.2166,3.2238,3.2249,3.2207,3.2334,3.2288,3.2298,3.2324,3.2338,3.2349,3.2345,3.216,0,0,0,0,0,3.2022,3.2063,3.2076,3.2141,3.2153,3.2155,3.2178,3.217,3.2194,3.2204,3.2217,3.2242,3.2284,3.2311,3.2349,3.2433,3.244,3.2473,3.2484,3.2493,3.2503,3.255,3.2565,3.2401,3.2401,3.2401,0,0,3.2065,3.2079,3.2105,3.2152,3.2169,3.2213,3.2163,3.2212,3.2245,3.2212,3.2276,3.2287,3.2315,3.2391,3.2426,3.2403,3.2549,3.2502,3.2509,3.2514,3.2559,3.2574,3.2588,3.2406,3.2405,3.2404,0,0,3.2165,3.2179,3.2235,3.2253,3.2279,3.228,3.2294,3.2315,3.232,3.2385,3.2361,3.2401,3.2472,3.2493,3.2513,3.2623,3.2604,3.2636,3.2696,3.2742,3.2755,3.2766,3.2807,3.2822,3.2645,3.2645,3.2645,0,3.2215,3.2279,3.2267,3.2318,3.234,3.231,3.2369,3.2387,3.2425,3.2442,3.2416,3.2505,3.2521,3.2604,3.263,3.2647,3.2664,3.2633,3.2754,3.2765,3.2776,3.2815,3.283,3.2649,3.2648,3.2648,3.2647,0,3.234,3.2385,3.2428,3.2465,3.2492,3.2546,3.2544,3.2573,3.2563,3.2567,3.2634,3.2653,3.2696,3.2714,3.2705,3.2796,3.2781,3.2754,3.2709,3.2795,3.2832,3.2847,3.2654,3.2653,3.2652,3.2651,0,0,3.2476,3.2505,3.2522,3.2538,3.2565,3.2601,3.2654,3.2695,3.2721,3.2748,3.2794,3.2855,3.2831,3.2854,3.2847,3.2887,3.2975,3.2856,3.2856,3.2879,3.3079,3.31,3.3118,3.2962,3.2965,3.2967,3.3077,0,3.2579,3.2671,3.2663,3.2751,3.2794,3.2767,3.2814,3.2837,3.2842,3.288,3.2887,3.2931,3.2894,3.2908,3.2947,3.2956,3.3016,3.2948,3.3007,3.301,3.3003,3.3136,3.3159,3.3262,3.3091,3.3094,3.3095,0,3.2712,3.2743,3.2836,3.2857,3.2875,3.2917,3.2954,3.299,3.3016,3.3017,3.3043,3.303,3.3086,3.3037,3.3116,3.307,3.3094,3.3102,3.3106,3.3113,3.3059,3.3149,3.3294,3.3311,3.3118,3.3116,3.3114,0,3.2804,3.2869,3.2933,3.2948,3.2974,3.3005,3.3018,3.304,3.3066,3.3099,3.3116,3.3155,3.3177,3.3209,3.3207,3.3171,3.3288,3.3238,3.3292,3.3293,3.3319,3.3318,3.3473,3.3332,3.3331,3.3331,3.3331,0,3.2921,3.2979,3.2975,3.3015,3.308,3.307,3.3135,3.3144,3.3165,3.3208,3.3186,3.3227,3.3221,3.3262,3.3261,3.3328,3.3337,3.3342,3.3341,3.3345,3.3344,3.3361,3.3355,3.3335,3.3334,3.3334,3.3333,0,3.3036,3.3035,3.3104,3.3122,3.3129,3.3176,3.3193,3.3232,3.3235,3.3289,3.3301,3.3308,3.3355,3.3356,3.3411,3.341,3.3492,3.3482,3.3483,3.3482,3.3536,3.3532,3.3709,3.3733,3.3574,3.3576,3.3577,0,3.3112,3.3156,3.3179,3.3205,3.322,3.3262,3.3288,3.328,3.3308,3.3341,3.3377,3.3422,3.3458,3.3535,3.3546,3.3588,3.3581,3.364,3.3587,3.359,3.3584,3.3582,3.3587,3.3651,3.3652,3.3654,3.3655,0,3.3247,3.3244,3.3281,3.3319,3.335,3.3379,3.3406,3.3429,3.3425,3.3458,3.3505,3.3533,3.3589,3.3635,3.3676,3.369,3.3674,3.3671,3.3686,3.3691,3.3691,3.3694,3.3513,3.3668,3.3666,3.3665,3.3665,3.3664,3.3346,3.3384,3.3407,3.3449,3.3469,3.3495,3.3532,3.354,3.3579,3.3623,3.3617,3.3671,3.3697,3.375,3.3768,3.3811,3.3791,3.3812,3.3818,3.3824,3.383,3.3682,3.3818,3.3818,3.3818,3.3817,3.3817,0,3.3481,3.3495,3.3533,3.3572,3.3606,3.3584,3.3614,3.3644,3.3691,3.3716,3.3752,3.3808,3.3852,3.3866,3.391,3.3942,3.3935,3.3954,3.3953,3.3957,3.3845,3.3829,3.3959,3.3959,3.3959,3.3959,3.3959,3.3959,3.3556,3.3621,3.3621,3.3696,3.3709,3.376,3.3779,3.3804,3.3824,3.3887,3.3923,3.3931,3.3953,3.3998,3.4039,3.4042,3.406,3.4082,3.4083,3.3979,3.3964,3.3951,3.3935,3.4086,3.4086,3.4191,3.4192,3.4192]},{"header":{"parameterUnit":"m.s-1","parameterCategory":1,"la1":30.2991,"la2":30.254,"lo1":-89.0895,"lo2":-89.0444,"dy":0.0017,"dx":0.0017,"nx":28,"ny":28,"refTime":"2025-07-10T03:00:00:Z","depth":0,"parameterNumber":3,"parameterNumberName":"V-component_of_WINDS"},"data":[0,0,0,0,0,0,0,0,0,0,0,0,0,0,0,0,0,0,0,0,0,0,0,0,0,0,0,0,0,0,0,0,0,0,0,0,0,0,0,0,0,0,0,0,0,0,0,0,0,0,0,0,0,0,0,0,0,0,0.7284,0.7287,0,0.7513,0.7516,0.7519,0.7585,0.7584,0.7583,0.7582,0.7823,0.7831,0.7838,0,0,0,0,0,0,0,0,0,0,0,0,0,0.6909,0.6915,0.7284,0.7287,0.729,0.7513,0.7516,0.7519,0.7585,0.7584,0.7582,0.7581,0.7821,0.783,0.7839,0,0,0,0,0,0,0,0,0,0,0,0,0,0.7098,0.6918,0.7284,0.735,0.7358,0.7512,0.7516,0.752,0.7586,0.7584,0.7582,0.758,0.7818,0.7829,0.784,0.7948,0,0,0.7875,0.788,0,0,0,0,0,0,0,0,0.7088,0.7112,0.7337,0.7345,0.7355,0.7519,0.7472,0.7664,0.7586,0.75,0.7582,0.7579,0.7724,0.7743,0.779,0.7959,0.7969,0.7876,0.7883,0.7888,0.7891,0,0,0,0,0,0,0,0.7074,0.7103,0.7375,0.734,0.7351,0.7369,0.7394,0.7509,0.762,0.7507,0.7512,0.7538,0.7729,0.7779,0.7797,0.7973,0.7876,0.7886,0.7893,0.7897,0.8238,0.824,0,0,0,0,0,0,0.7049,0.7091,0.7368,0.7382,0.7214,0.7378,0.7405,0.7468,0.7619,0.764,0.7539,0.754,0.7761,0.7783,0.7805,0.7939,0.7888,0.7899,0.7905,0.8236,0.8239,0.8241,0,0,0,0,0,0,0.7041,0.7073,0.7359,0.7238,0.7276,0.7386,0.7456,0.7474,0.7524,0.7643,0.7664,0.757,0.776,0.7789,0.7911,0.7948,0.7904,0.7914,0.8233,0.8237,0.824,0.8208,0,0,0,0,0,0,0.703,0.707,0.7111,0.7238,0.7282,0.7459,0.7458,0.7479,0.7543,0.7546,0.7678,0.7698,0.7761,0.7893,0.7922,0.7963,0.7923,0.8231,0.8235,0.8239,0.8206,0.8209,0.8212,0,0,0,0,0,0.7016,0.7095,0.7113,0.7146,0.7335,0.7461,0.7486,0.7555,0.7546,0.7588,0.7664,0.7694,0.7939,0.7905,0.7938,0.7983,0.8229,0.8234,0.8239,0.8204,0.8209,0.8212,0,0,0,0,0,0,0.6973,0.7113,0.7134,0.7257,0.7346,0.7472,0.7528,0.7558,0.7654,0.7653,0.7737,0.7766,0.7881,0.7945,0.7904,0.8093,0.8085,0.8097,0.8047,0.8053,0.8056,0.8038,0.7932,0,0,0,0,0,0.6977,0.7065,0.7184,0.728,0.7324,0.7417,0.7475,0.752,0.7617,0.7656,0.7741,0.7835,0.7933,0.7997,0.8094,0.8215,0.8244,0.8262,0.8265,0.8267,0.8277,0.8343,0.8352,0.8258,0.8257,0.8257,0,0,0.6988,0.7075,0.7126,0.7274,0.7348,0.7438,0.7449,0.7546,0.7613,0.7671,0.7789,0.7855,0.7966,0.8086,0.8144,0.8143,0.8309,0.8274,0.8275,0.8283,0.8349,0.8358,0.8366,0.8261,0.826,0.826,0,0,0.7053,0.7128,0.7215,0.7288,0.7399,0.746,0.7481,0.7602,0.7646,0.7766,0.781,0.7893,0.8061,0.8137,0.8198,0.8287,0.8317,0.8316,0.8334,0.8397,0.8405,0.8412,0.8442,0.8452,0.8325,0.8325,0.8325,0,0.7053,0.7188,0.7257,0.7349,0.7412,0.7464,0.7553,0.7622,0.776,0.7803,0.7799,0.8008,0.8087,0.8225,0.8245,0.8294,0.832,0.8302,0.8398,0.8406,0.8413,0.8443,0.8454,0.8324,0.8324,0.8324,0.8324,0,0.7182,0.7275,0.7333,0.746,0.753,0.762,0.7702,0.7765,0.7803,0.7864,0.7984,0.808,0.8196,0.8232,0.8272,0.8375,0.837,0.8381,0.8374,0.842,0.8449,0.8461,0.8323,0.8323,0.8323,0.8324,0,0,0.7229,0.7389,0.7409,0.7466,0.7591,0.7665,0.7757,0.7867,0.7918,0.8011,0.809,0.8229,0.8238,0.8307,0.8356,0.8411,0.8473,0.8416,0.8419,0.8422,0.859,0.858,0.8592,0.8493,0.8496,0.8498,0.858,0,0.7308,0.7472,0.7534,0.7669,0.7755,0.7804,0.7884,0.797,0.8029,0.8112,0.8179,0.8275,0.8281,0.8322,0.8379,0.8453,0.8508,0.8448,0.8568,0.8571,0.8538,0.8608,0.86,0.8673,0.8592,0.8594,0.8596,0,0.7424,0.7513,0.7655,0.7765,0.7804,0.7874,0.7979,0.8057,0.8154,0.8194,0.8267,0.8312,0.841,0.8396,0.8532,0.849,0.8543,0.8586,0.859,0.8604,0.8586,0.8623,0.8698,0.8709,0.8615,0.8613,0.8612,0,0.7441,0.7598,0.7702,0.775,0.7882,0.7929,0.7987,0.8082,0.8143,0.8235,0.8275,0.8378,0.8435,0.8513,0.8584,0.8567,0.8713,0.8705,0.8749,0.8747,0.8778,0.8775,0.8861,0.8812,0.8812,0.8812,0.8811,0,0.7524,0.7608,0.7711,0.7775,0.787,0.7941,0.8035,0.8096,0.8179,0.8256,0.8307,0.8378,0.8467,0.855,0.8606,0.8709,0.8735,0.877,0.8784,0.8765,0.876,0.8801,0.8797,0.8815,0.8814,0.8813,0.8813,0,0.756,0.7632,0.7748,0.7862,0.7892,0.7958,0.8056,0.812,0.818,0.8277,0.8304,0.8399,0.8499,0.8576,0.8708,0.8745,0.8854,0.887,0.882,0.8827,0.8865,0.886,0.8981,0.9,0.8938,0.8938,0.8939,0,0.7607,0.7673,0.7792,0.7845,0.7901,0.7988,0.8049,0.8121,0.8183,0.8296,0.8346,0.8449,0.8535,0.8693,0.8775,0.8875,0.8893,0.8928,0.8908,0.8886,0.8892,0.8886,0.8893,0.893,0.8931,0.8931,0.8931,0,0.7683,0.7714,0.7799,0.7896,0.7966,0.8047,0.8129,0.817,0.8257,0.8324,0.8425,0.8491,0.8623,0.8724,0.8831,0.8893,0.8926,0.8936,0.8951,0.8933,0.8901,0.8917,0.8826,0.8933,0.8933,0.8933,0.8933,0.8933,0.7726,0.7785,0.7876,0.7969,0.8037,0.8111,0.8175,0.8242,0.8326,0.8437,0.8475,0.8578,0.8672,0.8819,0.888,0.8963,0.8965,0.8987,0.8993,0.8997,0.8994,0.8887,0.8983,0.8983,0.8983,0.8983,0.8983,0,0.7803,0.7863,0.7947,0.8057,0.813,0.8151,0.8242,0.8302,0.8391,0.8474,0.8556,0.8671,0.8768,0.8856,0.8958,0.9007,0.9024,0.9031,0.9028,0.9041,0.8988,0.8964,0.9014,0.9014,0.9014,0.9014,0.9014,0.9014,0.7851,0.7952,0.7993,0.8127,0.8188,0.8287,0.8337,0.8405,0.8471,0.8596,0.8676,0.8731,0.8816,0.8923,0.9014,0.9037,0.9072,0.9074,0.9101,0.9049,0.9045,0.9041,0.9019,0.9081,0.9081,0.9148,0.9148,0.9149]}]]